Home   Weather   Iron Mountain   Past weeks
Flag for USA

Past Weather in Iron Mountain, Michigan, USA — Yesterday and Last 2 Weeks

Now
47 °F

Partly sunny.


Feels Like: 39 °F
Forecast: 46 / 38 °F
Wind: 21 mph from Northwest

Location: Ford Airport

Current Time: Oct 16, 2019 at 5:02:55 pm

Latest Report: Oct 16, 2019 at 3:54 pm


Visibility: 10 mi

Pressure: 29.93 "Hg

Humidity: 61%

Dew Point: 34 °F

Location of Iron MountainLocation

Past Weather in Iron Mountain — Graph

°F

Iron Mountain Temperature Yesterday

Maximum temperature yesterday: 43 °F (at 3:54 pm)
Minimum temperature yesterday: 31 °F (at 2:54 am)
Average temperature yesterday: 39 °F

High & Low Weather Summary for the Past Weeks

 TemperatureHumidityPressure
High70 °F (Oct 9, 1:54 pm)97% (Oct 10, 5:40 am)30.52 "Hg (Oct 10, 5:40 am)
Low31 °F (Oct 8, 4:54 am)36% (Oct 7, 1:54 pm)29.58 "Hg (Oct 12, 11:10 pm)
Average46 °F78%29.96 "Hg
* Reported Oct 1 3:54 pm — Oct 16 3:54 pm, Iron Mountain. Weather by CustomWeather, © 2019

Note: Actual official high and low records may vary slightly from our data, if they occured in-between our weather recording intervals... More about our weather records

Advertising

Iron Mountain Weather History for the Previous 24 Hours

Scroll right to see more
 ConditionsComfort  
Time TempWeatherWind HumidityBarometerVisibility
3:54 pm
Wed, Oct 16
47 °FPartly sunny.21 mph61%29.93 "Hg10 mi
3:31 pm47 °FBroken clouds.16 mph64%29.90 "Hg10 mi
2:54 pm48 °FLight rain. More clouds than sun.16 mph61%29.93 "Hg10 mi
1:54 pm49 °FMore clouds than sun.20 mph61%29.92 "Hg10 mi
1:17 pm47 °FMostly cloudy.17 mph66%29.89 "Hg10 mi
12:54 pm47 °FPartly sunny.16 mph66%29.92 "Hg10 mi
11:54 am47 °FLight rain. More clouds than sun.18 mph69%29.91 "Hg10 mi
11:23 am46 °FLight rain. Cloudy.17 mph71%29.88 "Hg10 mi
10:54 am46 °FMostly cloudy.17 mph71%29.91 "Hg10 mi
10:26 am46 °FCloudy.23 mph71%29.87 "Hg10 mi
9:54 am46 °FOvercast.23 mph73%29.89 "Hg10 mi
8:54 am45 °FPartly sunny.18 mph68%29.88 "Hg10 mi
8:27 am42 °FLight rain. Fog.8 mph85%29.84 "Hg4 mi
8:14 am43 °FLight rain. Cloudy.13 mph79%29.84 "Hg10 mi
7:54 am43 °FMostly cloudy.20 mph76%29.86 "Hg10 mi
6:54 am43 °FPassing clouds.13 mph79%29.84 "Hg10 mi
6:02 am42 °FPartly cloudy.15 mph82%29.80 "Hg10 mi
5:54 am42 °FPassing clouds.14 mph82%29.83 "Hg10 mi
5:17 am42 °FMostly cloudy.18 mph82%29.79 "Hg10 mi
4:54 am43 °FOvercast.14 mph79%29.81 "Hg10 mi
3:54 am43 °FMostly cloudy.14 mph82%29.79 "Hg10 mi
2:54 am42 °FOvercast.15 mph85%29.78 "Hg10 mi
1:54 am42 °FOvercast.13 mph82%29.77 "Hg10 mi
12:54 am42 °FOvercast.15 mph82%29.76 "Hg10 mi
12:15 am41 °FOvercast.16 mph86%29.72 "Hg10 mi
11:54 pm
Tue, Oct 15
41 °FMostly cloudy.14 mph86%29.75 "Hg10 mi
11:29 pm40 °FOvercast.14 mph89%29.72 "Hg10 mi
10:54 pm40 °FLight rain. Mostly cloudy.13 mph89%29.76 "Hg10 mi
10:40 pm40 °FLight rain. Overcast.17 mph86%29.73 "Hg10 mi
9:54 pm40 °FLight rain. Overcast.15 mph86%29.76 "Hg10 mi
9:24 pm39 °FLight rain. Fog.14 mph89%29.73 "Hg6 mi
8:54 pm40 °FLight rain. Fog.17 mph89%29.75 "Hg6 mi
8:34 pm41 °FLight rain. Mostly cloudy.16 mph86%29.71 "Hg8 mi
8:11 pm42 °FLight rain. Mostly cloudy.18 mph85%29.70 "Hg7 mi
7:54 pm42 °FLight rain. Low clouds.15 mph89%29.72 "Hg8 mi
6:54 pm43 °FLight rain. Overcast.14 mph86%29.71 "Hg8 mi
6:32 pm43 °FLight rain. Fog.14 mph86%29.69 "Hg6 mi
5:54 pm43 °FLight rain. Fog.12 mph89%29.72 "Hg5 mi
5:36 pm43 °FLight rain. Fog.9 mph89%29.70 "Hg4 mi
5:14 pm43 °FHeavy rain. Fog.9 mph89%29.71 "Hg2 mi
5:07 pm43 °FRain. Fog.8 mph89%29.71 "Hg2 mi
Weather by CustomWeather, © 2019

See weather overview